This demonstration page uses our WeatherBlox Daily Observations layout. Learn more.

38.88101, -77.10428

Hourly Observations for August 22, 2016

Temp ( °F °C ) Dew Point ( °F °C ) Humidity (%) Winds ( mph kmh ) Pressure ( in mb ) Visibility ( mi km ) Precip ( " mm )
12:52 am 00:52 Mostly Cloudy 74 23.3 62 16.7 67 67 NW 10 17 29.91 1013 10 16.09344 0 0
1:52 am 01:52 Mostly Clear 73 22.8 62 16.7 69 69 NW 7 11 29.94 1014 10 16.09344 0 0
2:52 am 02:52 Partly Cloudy 72 22.2 61 16.1 68 68 WNW 7 11 29.94 1014 10 16.09344 0 0
3:52 am 03:52 Mostly Clear 73 22.8 60 15.6 64 64 WNW 10 17 29.94 1014 10 16.09344 0 0
4:52 am 04:52 Clear 73 22.8 59 15 62 62 NW 13 20 29.97 1015 10 16.09344 0 0
5:52 am 05:52 Mostly Clear 71 21.7 59 15 66 66 W 6 9 29.97 1015 10 16.09344 0 0
6:52 am 06:52 Mostly Sunny 70 21.1 60 15.6 71 71 N 3 6 30 1016 10 16.09344 0 0
7:52 am 07:52 Mostly Sunny 73 22.8 60 15.6 64 64 N 7 11 30.03 1017 10 16.09344 0 0
8:52 am 08:52 Mostly Sunny 75 23.9 60 15.6 60 60 WNW 9 15 30.06 1018 10 16.09344 0 0
9:52 am 09:52 Mostly Sunny 76 24.4 61 16.1 60 60 NNW 13 20 30.09 1019 10 16.09344 0 0
10:52 am 10:52 Mostly Sunny 79 26.1 61 16.1 54 54 NW 8 13 30.09 1019 10 16.09344 0 0
11:52 am 11:52 Partly Cloudy 81 27.2 61 16.1 51 51 N 8 13 30.09 1019 10 16.09344 0 0
12:52 pm 12:52 Mostly Cloudy 81 27.2 61 16.1 51 51 NW 8 13 30.09 1019 10 16.09344 0 0
1:52 pm 13:52 Partly Cloudy 83 28.3 61 16.1 48 48 NW 15 24 30.12 1020 10 16.09344 0 0
2:52 pm 14:52 Partly Cloudy 85 29.4 60 15.6 43 43 NW 14 22 30.09 1019 10 16.09344 0 0
3:52 pm 15:52 Partly Cloudy 85 29.4 58 14.4 40 40 NW 12 19 30.09 1019 10 16.09344 0 0
4:52 pm 16:52 Partly Cloudy 85 29.4 57 13.9 39 39 NW 14 22 30.09 1019 10 16.09344 0 0
5:52 pm 17:52 Partly Cloudy 84 28.9 58 14.4 41 41 NNW 14 22 30.12 1020 10 16.09344 0 0
6:52 pm 18:52 Partly Cloudy 82 27.8 56 13.3 41 41 NW 13 20 30.12 1020 10 16.09344 0 0
7:52 pm 19:52 Mostly Sunny 80 26.7 56 13.3 44 44 NNW 10 17 30.15 1021 10 16.09344 0 0
8:52 pm 20:52 Mostly Clear 78 25.6 58 14.4 50 50 N 7 11 30.15 1021 10 16.09344 0 0
9:52 pm 21:52 Mostly Clear 77 25 59 15 54 54 N 6 9 30.18 1022 10 16.09344 0 0
10:52 pm 22:52 Mostly Clear 75 23.9 63 17.2 66 66 NNE 3 6 30.21 1023 10 16.09344 0 0
11:52 pm 23:52 Mostly Clear 74 23.3 63 17.2 69 69 NE 6 9 30.21 1023 10 16.09344 0 0

Powered by AerisWeather